Regional Weather Roundup
Issued by NWS Boston, MA

Home | Current Version | Previous Version | Text Only | Print | Product List | Glossary On
Versions: 1 2 3 4 5 6 7 8 9 10 11 12 13 14 15 16 17 18 19 20 21 22 23 24 25 26 27
000
ASUS41 KBOX 200110
RWRBOX

REGIONAL WEATHER ROUNDUP
NATIONAL WEATHER SERVICE TAUNTON MA
900 PM EDT SAT APR 19 2014

NOTE:  "FAIR" INDICATES FEW OR NO CLOUDS BELOW 12,000 FEET WITH NO
SIGNIFICANT WEATHER AND/OR OBSTRUCTIONS TO VISIBILITY.  THE FOLLOWING
OBSERVATION LOCATIONS DO NOT REPORT PRESENT WEATHER...PROVINCETOWN...
SMITHFIELD...BLOCK ISLAND...KEENE...AND OXFORD.

MAZALL-200200-
EASTERN MASSACHUSETTS

CITY           SKY/WX    TMP DP  RH WIND       PRES   REMARKS
BOSTON         MOCLDY    51  24  34 N15G22    30.34R
BEVERLY        CLEAR     48  26  42 N8        30.35R
LAWRENCE       CLEAR     47  23  38 N8        30.38R
BEDFORD        CLEAR     48  25  40 N15       30.34R
BLUE HILL        N/A     48  25  40 N13G24    30.31R
NORWOOD        CLEAR     51  26  37 N7G21     30.33R
MARSHFIELD       N/A    N/A N/A N/A MISG        N/A
PLYMOUTH       CLEAR     45  33  63 NE8       30.33R
TAUNTON        CLEAR     52  34  50 E5        30.32R
NEW BEDFORD    CLEAR     48  34  58 E8        30.32R
$$

MAZALL-200200-
CAPE COD AND THE ISLANDS

CITY           SKY/WX    TMP DP  RH WIND       PRES   REMARKS
FALMOUTH       CLEAR     48  32  53 NE14      30.33R
HYANNIS        CLEAR     48  33  56 NE8       30.32R
CHATHAM        PTCLDY    47  35  63 NE6       30.33R
PROVINCETOWN   CLEAR     45  36  70 MISG      30.34R
NANTUCKET      PTCLDY    47  35  63 N8        30.32R
MARTHAS VNYRD  PTCLDY    49  32  52 NE8       30.32R
$$

MAZALL-200200-
CENTRAL AND WESTERN MASSACHUSETTS

CITY           SKY/WX    TMP DP  RH WIND       PRES   REMARKS
WORCESTER      CLEAR     48  24  39 N8        30.33R
FITCHBURG      CLEAR     49  25  39 N13G20    30.37R
ORANGE         CLEAR     47  22  37 N10       30.35R
SPRINGFIELD    CLEAR     49  29  45 NE9       30.32R
WESTFIELD      CLEAR     51  25  36 N7        30.32R
NORTH ADAMS    PTCLDY    41  28  60 SW3       30.35R
PITTSFIELD     PTCLDY    45  21  38 N6        30.32R
$$

RIZALL-200200-
RHODE ISLAND

CITY           SKY/WX    TMP DP  RH WIND       PRES   REMARKS
PROVIDENCE     PTCLDY    52  34  50 CALM      30.32R
NEWPORT        PTCLDY    46  36  68 CALM      30.32R
BLOCK ISLAND   MOCLDY    48  32  53 SE9       30.31R
SMITHFIELD     CLEAR     52  27  37 N9        30.33R
WESTERLY       PTCLDY    49  34  56 E3        30.32R
$$

CTZALL-200200-
CONNECTICUT

CITY           SKY/WX    TMP DP  RH WIND       PRES   REMARKS
BRADLEY INTL   PTCLDY    54  25  32 N9        30.32R
HARTFORD       CLEAR     54  26  34 N9        30.32R
BRIDGEPORT     MOCLDY    58  27  30 NW9       30.30R
DANBURY        PTCLDY    52  24  33 N9        30.32R
GROTON         MOCLDY    56  25  30 N7        30.29R
NEW HAVEN      MOCLDY    57  27  31 N7        30.30R
CHESTER        FAIR      55  27  33 N8        30.31R
MERIDEN        PTCLDY    56  27  32 N7        30.31R
WILLIMANTIC    PTCLDY    51  26  37 N3        30.32R
$$

MEZ002-015-021-024-NHZ003-005-008-011-012-014-VTZ005-008-200200-
NORTHERN NEW ENGLAND

CITY           SKY/WX    TMP DP  RH WIND       PRES   REMARKS
PORTLAND ME    PTCLDY    44  23  43 N9        30.35R
BANGOR ME      PTCLDY    39  21  48 VRB6      30.30R
CONCORD NH     CLEAR     43  24  47 NE3       30.37R
MANCHESTER NH  MOCLDY    48  22  35 NW10      30.36R
NASHUA NH      CLEAR     47  25  42 N8        30.37R
PORTSMOUTH NH  PTCLDY    45  24  43 W8        30.35R
JAFFREY NH     CLEAR     43  24  47 VRB3      30.36R
KEENE NH       CLEAR     45  23  42 N3        30.38R
BURLINGTON VT  CLEAR     44  23  43 NW3       30.41R
MT. WASHINGTON PTCLDY    16  12  86 NW54        N/A  WCI  -9
$$

NYZ052-076-200200-
EASTERN NEW YORK

CITY           SKY/WX    TMP DP  RH WIND       PRES   REMARKS
ALBANY         MOCLDY    49  22  34 N7        30.38R
NEW YORK CITY  MOCLDY    57  27  31 E6        30.29R
$$

ANZALL-200200-
MARINE OBSERVATIONS

STATION/POSITION TIME  TEMP    WIND        PRES    VSBY  WAVE
                       AIR SEA DIR/SP/G                  HT/PER
                 (UTC) (F)     (DEG/KT/KT) (MB)    (MI)  (FT/S)
BOSTON BUOY      0050   46 40  360/ 17/ 19 1027.2R         3/ 9
BUZZARDS BAY     0000          160/  9/  9 1026.2R
NANTUCKET SOUND  0050   47 45   50/  6/  6 1026.8R         1/ 4
MASS BAY-STELLWA 0004   47 42  340/ 19/ 23 1024.8R  1 7/8  4/ 8
ISLE OF SHOALS   0000   48     320/ 23/ 25 1026.0R
S OF BLOCK IS    0025      42                N/A           3/ 9
$$

......................KEY.........................
  SKY/WX - SKY CONDITION/PRESENT WEATHER
  TMP    - TEMPERATURE IN FAHRENHEIT
  DWPT   - DEWPOINT IN FAHRENHEIT
  RH     - RELATIVE HUMIDITY IN PERCENT
  WIND   - DIRECTION AND SPEED IN MPH
  PRES   - MEAN SEA LEVEL PRESSURE IN INCHES OF HG
  WCI    - WIND CHILL INDEX
  VSB    - VISIBILITY IN MILES
  HX     - HEAT INDEX
  TC     - TEMPERATURE IN CELSIUS
  VRB    - VARIABLE WIND DIRECTION
  N/A    - NOT AVAILABLE



USA.gov is the U.S. government's official web portal to all federal, state and local government web resources and services.